| time (UTC) | temp F | wind direction | speed MPH | gust MPH | rain 1hr in | rain 24hr in | rain mn in | humidity % | barometer mb |
| 20260504050433 | 59 | 248 | 3.0 | 5.0 | 0.00 | 0.00 | 0.00 | 39 | 1017.3 |
| 20260504045930 | 58 | 38 | 3.0 | 3.0 | 0.00 | 0.00 | 0.00 | 40 | 1017.1 |
| 20260504045426 | 58 | 287 | 0.0 | 1.0 | 0.00 | 0.00 | 0.00 | 40 | 1016.9 |
| 20260504044922 | 58 | 71 | 0.0 | 0.0 | 0.00 | 0.00 | 0.00 | 40 | 1016.8 |
| 20260504044420 | 56 | 37 | 1.0 | 2.0 | 0.00 | 0.00 | 0.00 | 41 | 1016.8 |
| 20260504043917 | 55 | 110 | 1.0 | 1.0 | 0.00 | 0.00 | 0.00 | 41 | 1016.7 |
| 20260504043414 | 55 | 48 | 2.0 | 2.0 | 0.00 | 0.00 | 0.00 | 43 | 1016.4 |
| 20260504042912 | 54 | 146 | 0.0 | 0.0 | 0.00 | 0.00 | 0.00 | 47 | 1016.5 |
| 20260504042408 | 55 | 233 | 0.0 | 0.0 | 0.00 | 0.00 | 0.00 | 49 | 1016.2 |
| 20260504041904 | 54 | 130 | 0.0 | 0.0 | 0.00 | 0.00 | 0.00 | 43 | 1015.9 |
| 20260504041401 | 54 | 195 | 0.0 | 0.0 | 0.00 | 0.00 | 0.00 | 46 | 1015.8 |
| 20260504040856 | 54 | 123 | 0.0 | 0.0 | 0.00 | 0.00 | 0.00 | 46 | 1016.2 |
| 20260504040354 | 54 | 124 | 0.0 | 0.0 | 0.00 | 0.00 | 0.00 | 46 | 1016.2 |
| 20260504035850 | 53 | 246 | 0.0 | 0.0 | 0.00 | 0.00 | 0.00 | 45 | 1015.8 |
| 20260504035348 | 54 | 217 | 0.0 | 0.0 | 0.00 | 0.00 | 0.00 | 49 | 1016.3 |
| 20260504034844 | 54 | 146 | 0.0 | 0.0 | 0.00 | 0.00 | 0.00 | 46 | 1015.8 |
| 20260504034342 | 54 | 97 | 1.0 | 1.0 | 0.00 | 0.00 | 0.00 | 45 | 1015.7 |
| 20260504033839 | 53 | 126 | 0.0 | 0.0 | 0.00 | 0.00 | 0.00 | 52 | 1016.0 |
| 20260504033337 | 52 | 162 | 0.0 | 1.0 | 0.00 | 0.00 | 0.00 | 51 | 1015.6 |
| 20260504032833 | 52 | 148 | 0.0 | 0.0 | 0.00 | 0.00 | 0.00 | 57 | 1015.6 |
| 20260504032330 | 52 | 178 | 0.0 | 0.0 | 0.00 | 0.00 | 0.00 | 49 | 1015.4 |
| 20260504031827 | 52 | 131 | 0.0 | 0.0 | 0.00 | 0.00 | 0.00 | 59 | 1015.2 |
| 20260504031324 | 52 | 185 | 0.0 | 0.0 | 0.00 | 0.00 | 0.00 | 51 | 1015.2 |
| 20260504030820 | 52 | 193 | 0.0 | 0.0 | 0.00 | 0.00 | 0.00 | 49 | 1015.2 |
| 20260504030318 | 52 | 159 | 0.0 | 0.0 | 0.00 | 0.00 | 0.00 | 56 | 1014.9 |
| 20260504025814 | 52 | 154 | 0.0 | 0.0 | 0.00 | 0.00 | 0.00 | 56 | 1014.9 |
| 20260504025311 | 51 | 172 | 0.0 | 0.0 | 0.00 | 0.00 | 0.00 | 51 | 1014.9 |
| 20260504024808 | 52 | 174 | 0.0 | 0.0 | 0.00 | 0.00 | 0.00 | 54 | 1014.8 |
| 20260504024304 | 52 | 209 | 0.0 | 0.0 | 0.00 | 0.00 | 0.00 | 56 | 1015.1 |
| 20260504023801 | 52 | 181 | 0.0 | 0.0 | 0.00 | 0.00 | 0.00 | 51 | 1014.9 |
| 20260504023257 | 52 | 142 | 0.0 | 0.0 | 0.00 | 0.00 | 0.00 | 47 | 1014.7 |
| 20260504022754 | 52 | 151 | 0.0 | 0.0 | 0.00 | 0.00 | 0.00 | 53 | 1014.8 |
| 20260504022250 | 53 | 153 | 0.0 | 0.0 | 0.00 | 0.00 | 0.00 | 48 | 1014.6 |
| 20260504021747 | 54 | 153 | 0.0 | 0.0 | 0.00 | 0.00 | 0.00 | 48 | 1014.5 |
| 20260504021245 | 55 | 142 | 0.0 | 0.0 | 0.00 | 0.00 | 0.00 | 46 | 1014.8 |
| 20260504020741 | 56 | 120 | 0.0 | 0.0 | 0.00 | 0.00 | 0.00 | 47 | 1014.7 |
| 20260504020237 | 58 | 191 | 0.0 | 0.0 | 0.00 | 0.00 | 0.00 | 38 | 1014.5 |
| 20260504015734 | 59 | 217 | 0.0 | 0.0 | 0.00 | 0.00 | 0.00 | 36 | 1014.5 |
| 20260504015231 | 60 | 172 | 0.0 | 0.0 | 0.00 | 0.00 | 0.00 | 35 | 1014.6 |
| 20260504014726 | 60 | 166 | 0.0 | 0.0 | 0.00 | 0.00 | 0.00 | 33 | 1014.6 |
| 20260504014223 | 61 | 199 | 0.0 | 0.0 | 0.00 | 0.00 | 0.00 | 32 | 1014.3 |
| 20260504013721 | 62 | 200 | 0.0 | 0.0 | 0.00 | 0.00 | 0.00 | 32 | 1014.2 |
| 20260504013218 | 62 | 203 | 0.0 | 0.0 | 0.00 | 0.00 | 0.00 | 30 | 1014.6 |
| 20260504012714 | 63 | 215 | 0.0 | 0.0 | 0.00 | 0.00 | 0.00 | 29 | 1014.5 |
| 20260504012213 | 64 | 201 | 0.0 | 0.0 | 0.00 | 0.00 | 0.00 | 27 | 1014.3 |
| 20260504011709 | 64 | 183 | 0.0 | 0.0 | 0.00 | 0.00 | 0.00 | 27 | 1014.2 |
| 20260504011206 | 65 | 219 | 0.0 | 0.0 | 0.00 | 0.00 | 0.00 | 26 | 1014.6 |
| 20260504010702 | 66 | 209 | 0.0 | 0.0 | 0.00 | 0.00 | 0.00 | 24 | 1014.3 |
| 20260504010157 | 67 | 236 | 1.0 | 2.0 | 0.00 | 0.00 | 0.00 | 23 | 1014.2 |
| 20260504005654 | 67 | 259 | 0.0 | 1.0 | 0.00 | 0.00 | 0.00 | 24 | 1014.3 |
| 20260504005151 | 68 | 221 | 0.0 | 0.0 | 0.00 | 0.00 | 0.00 | 22 | 1014.2 |
| 20260504004649 | 68 | 281 | 0.0 | 1.0 | 0.00 | 0.00 | 0.00 | 22 | 1014.3 |
| 20260504004146 | 68 | 187 | 1.0 | 1.0 | 0.00 | 0.00 | 0.00 | 21 | 1014.5 |
| 20260504003642 | 70 | 223 | 1.0 | 1.0 | 0.00 | 0.00 | 0.00 | 20 | 1014.3 |
| 20260504003139 | 72 | 139 | 0.0 | 0.0 | 0.00 | 0.00 | 0.00 | 22 | 1014.6 |
| 20260504002636 | 73 | 179 | 0.0 | 0.0 | 0.00 | 0.00 | 0.00 | 20 | 1014.6 |
| 20260504002134 | 72 | 228 | 0.0 | 0.0 | 0.00 | 0.00 | 0.00 | 20 | 1014.5 |
| 20260504001631 | 72 | 232 | 0.0 | 0.0 | 0.00 | 0.00 | 0.00 | 25 | 1014.7 |
| 20260504001127 | 72 | 153 | 0.0 | 0.0 | 0.00 | 0.00 | 0.00 | 28 | 1014.8 |
| 20260504000625 | 71 | 175 | 0.0 | 0.0 | 0.00 | 0.00 | 0.00 | 22 | 1014.7 |
| 20260504000122 | 70 | 212 | 0.0 | 0.0 | 0.00 | 0.00 | 0.00 | 20 | 1014.9 |
| 20260503235620 | 69 | 185 | 0.0 | 0.0 | 0.00 | 0.00 | 0.00 | 25 | 1014.6 |
| 20260503235116 | 67 | 164 | 0.0 | 0.0 | 0.00 | 0.00 | 0.00 | 26 | 1014.7 |
| 20260503234614 | 67 | 38 | 0.0 | 1.0 | 0.00 | 0.00 | 0.00 | 24 | 1014.9 |
| 20260503234112 | 67 | 104 | 1.0 | 1.0 | 0.00 | 0.00 | 0.00 | 24 | 1015.1 |
| 20260503233609 | 68 | 118 | 0.0 | 0.0 | 0.00 | 0.00 | 0.00 | 25 | 1015.1 |
| 20260503233104 | 69 | 107 | 1.0 | 1.0 | 0.00 | 0.00 | 0.00 | 22 | 1014.9 |
| 20260503232601 | 69 | 142 | 0.0 | 0.0 | 0.00 | 0.00 | 0.00 | 26 | 1015.2 |
| 20260503232059 | 67 | 140 | 0.0 | 0.0 | 0.00 | 0.00 | 0.00 | 35 | 1015.2 |
| 20260503231556 | 68 | 159 | 0.0 | 0.0 | 0.00 | 0.00 | 0.00 | 34 | 1015.3 |
| 20260503231053 | 68 | 113 | 0.0 | 1.0 | 0.00 | 0.00 | 0.00 | 27 | 1015.3 |
| 20260503230549 | 68 | 141 | 0.0 | 0.0 | 0.00 | 0.00 | 0.00 | 26 | 1015.2 |
| 20260503230047 | 68 | 255 | 0.0 | 0.0 | 0.00 | 0.00 | 0.00 | 27 | 1015.4 |
| 20260503225544 | 69 | 129 | 0.0 | 0.0 | 0.00 | 0.00 | 0.00 | 27 | 1015.1 |
| 20260503225039 | 70 | 53 | 0.0 | 0.0 | 0.00 | 0.00 | 0.00 | 28 | 1015.1 |
| 20260503224537 | 71 | 146 | 0.0 | 1.0 | 0.00 | 0.00 | 0.00 | 24 | 1015.6 |
| 20260503224035 | 72 | 177 | 1.0 | 1.0 | 0.00 | 0.00 | 0.00 | 22 | 1015.7 |
| 20260503223533 | 70 | 283 | 0.0 | 1.0 | 0.00 | 0.00 | 0.00 | 27 | 1015.7 |
| 20260503223028 | 70 | 126 | 0.0 | 0.0 | 0.00 | 0.00 | 0.00 | 24 | 1015.7 |
| 20260503222526 | 70 | 196 | 0.0 | 1.0 | 0.00 | 0.00 | 0.00 | 24 | 1015.4 |
| 20260503222024 | 71 | 200 | 1.0 | 1.0 | 0.00 | 0.00 | 0.00 | 26 | 1015.9 |
| 20260503221522 | 73 | 198 | 1.0 | 2.0 | 0.00 | 0.00 | 0.00 | 23 | 1015.8 |
| 20260503221019 | 71 | 268 | 0.0 | 0.0 | 0.00 | 0.00 | 0.00 | 27 | 1015.7 |
| 20260503220515 | 71 | 67 | 0.0 | 1.0 | 0.00 | 0.00 | 0.00 | 23 | 1016.4 |
| 20260503220012 | 73 | 165 | 2.0 | 3.0 | 0.00 | 0.00 | 0.00 | 21 | 1016.4 |
| 20260503215509 | 74 | 0 | 2.0 | 2.0 | 0.00 | 0.00 | 0.00 | 21 | 1016.3 |
| 20260503215006 | 73 | 279 | 1.0 | 2.0 | 0.00 | 0.00 | 0.00 | 27 | 1016.4 |
| 20260503214504 | 73 | 111 | 1.0 | 2.0 | 0.00 | 0.00 | 0.00 | 25 | 1016.3 |
| 20260503214001 | 73 | 233 | 0.0 | 0.0 | 0.00 | 0.00 | 0.00 | 22 | 1016.7 |
| 20260503213459 | 73 | 271 | 0.0 | 1.0 | 0.00 | 0.00 | 0.00 | 22 | 1016.9 |
| 20260503212955 | 71 | 163 | 1.0 | 2.0 | 0.00 | 0.00 | 0.00 | 26 | 1016.8 |
| 20260503212452 | 69 | 95 | 1.0 | 1.0 | 0.00 | 0.00 | 0.00 | 29 | 1016.9 |
| 20260503211949 | 66 | 175 | 1.0 | 1.0 | 0.00 | 0.00 | 0.00 | 27 | 1017.0 |
| 20260503211446 | 67 | 59 | 3.0 | 5.0 | 0.00 | 0.00 | 0.00 | 25 | 1017.3 |
| 20260503210937 | 66 | 77 | 1.0 | 2.0 | 0.00 | 0.00 | 0.00 | 26 | 1017.3 |
| 20260503210433 | 67 | 81 | 2.0 | 3.0 | 0.00 | 0.00 | 0.00 | 26 | 1017.1 |
| 20260503205928 | 69 | 107 | 1.0 | 2.0 | 0.00 | 0.00 | 0.00 | 28 | 1017.4 |
| 20260503205426 | 66 | 140 | 0.0 | 0.0 | 0.00 | 0.00 | 0.00 | 29 | 1017.5 |
| 20260503204921 | 66 | 5 | 1.0 | 2.0 | 0.00 | 0.00 | 0.00 | 27 | 1017.4 |
| 20260503204419 | 65 | 158 | 0.0 | 0.0 | 0.00 | 0.00 | 0.00 | 26 | 1017.8 |
| 20260503203916 | 65 | 83 | 0.0 | 0.0 | 0.00 | 0.00 | 0.00 | 31 | 1017.8 |
| 20260503203413 | 65 | 69 | 0.0 | 0.0 | 0.00 | 0.00 | 0.00 | 31 | 1017.9 |
| 20260503202910 | 65 | 87 | 0.0 | 0.0 | 0.00 | 0.00 | 0.00 | 29 | 1018.0 |
| 20260503202409 | 66 | 114 | 2.0 | 2.0 | 0.00 | 0.00 | 0.00 | 28 | 1018.0 |
| 20260503201907 | 66 | 183 | 0.0 | 0.0 | 0.00 | 0.00 | 0.00 | 31 | 1018.4 |
| 20260503201403 | 66 | 109 | 1.0 | 1.0 | 0.00 | 0.00 | 0.00 | 27 | 1018.4 |
| 20260503200901 | 67 | 85 | 1.0 | 2.0 | 0.00 | 0.00 | 0.00 | 29 | 1018.5 |
| 20260503200356 | 68 | 267 | 1.0 | 2.0 | 0.00 | 0.00 | 0.00 | 26 | 1018.7 |
| 20260503195854 | 68 | 112 | 1.0 | 2.0 | 0.00 | 0.00 | 0.00 | 30 | 1018.7 |
| 20260503195350 | 69 | 104 | 2.0 | 2.0 | 0.00 | 0.00 | 0.00 | 24 | 1018.7 |
| 20260503194848 | 67 | 135 | 0.0 | 0.0 | 0.00 | 0.00 | 0.00 | 32 | 1018.7 |
| 20260503194343 | 66 | 137 | 1.0 | 1.0 | 0.00 | 0.00 | 0.00 | 27 | 1018.6 |
| 20260503193840 | 66 | 155 | 0.0 | 1.0 | 0.00 | 0.00 | 0.00 | 27 | 1019.0 |
| 20260503193336 | 66 | 209 | 0.0 | 0.0 | 0.00 | 0.00 | 0.00 | 30 | 1019.1 |
| 20260503192832 | 67 | 130 | 1.0 | 1.0 | 0.00 | 0.00 | 0.00 | 27 | 1019.2 |
| 20260503192327 | 66 | 119 | 0.0 | 0.0 | 0.00 | 0.00 | 0.00 | 34 | 1018.8 |
| 20260503191824 | 66 | 119 | 2.0 | 2.0 | 0.00 | 0.00 | 0.00 | 27 | 1019.1 |
| 20260503191321 | 66 | 71 | 0.0 | 0.0 | 0.00 | 0.00 | 0.00 | 26 | 1019.0 |
| 20260503190817 | 66 | 72 | 0.0 | 1.0 | 0.00 | 0.00 | 0.00 | 27 | 1019.2 |
| 20260503190314 | 66 | 156 | 0.0 | 0.0 | 0.00 | 0.00 | 0.00 | 28 | 1019.2 |
| 20260503185812 | 69 | 116 | 0.0 | 1.0 | 0.00 | 0.00 | 0.00 | 30 | 1019.7 |
| 20260503185307 | 68 | 140 | 2.0 | 2.0 | 0.00 | 0.00 | 0.00 | 25 | 1019.5 |
| 20260503184802 | 65 | 94 | 2.0 | 2.0 | 0.00 | 0.00 | 0.00 | 28 | 1019.9 |
| 20260503184259 | 66 | 101 | 1.0 | 2.0 | 0.00 | 0.00 | 0.00 | 27 | 1019.9 |
| 20260503183754 | 66 | 81 | 2.0 | 2.0 | 0.00 | 0.00 | 0.00 | 31 | 1020.1 |
| 20260503183252 | 68 | 238 | 1.0 | 2.0 | 0.00 | 0.00 | 0.00 | 28 | 1019.8 |
| 20260503182749 | 65 | 147 | 1.0 | 1.0 | 0.00 | 0.00 | 0.00 | 27 | 1020.2 |
| 20260503182248 | 66 | 25 | 0.0 | 2.0 | 0.00 | 0.00 | 0.00 | 29 | 1020.2 |
| 20260503181744 | 66 | 157 | 1.0 | 1.0 | 0.00 | 0.00 | 0.00 | 29 | 1020.8 |
| 20260503181242 | 65 | 184 | 0.0 | 0.0 | 0.00 | 0.00 | 0.00 | 29 | 1020.6 |
| 20260503180738 | 64 | 114 | 0.0 | 0.0 | 0.00 | 0.00 | 0.00 | 33 | 1020.9 |
| 20260503180236 | 66 | 14 | 1.0 | 1.0 | 0.00 | 0.00 | 0.00 | 29 | 1020.6 |
| 20260503175732 | 67 | 213 | 3.0 | 3.0 | 0.00 | 0.00 | 0.00 | 27 | 1020.8 |
| 20260503175231 | 67 | 236 | 2.0 | 2.0 | 0.00 | 0.00 | 0.00 | 26 | 1020.9 |
| 20260503174726 | 66 | 137 | 0.0 | 1.0 | 0.00 | 0.00 | 0.00 | 30 | 1020.9 |
| 20260503174224 | 65 | 135 | 0.0 | 0.0 | 0.00 | 0.00 | 0.00 | 30 | 1020.9 |
| 20260503173719 | 64 | 312 | 1.0 | 1.0 | 0.00 | 0.00 | 0.00 | 30 | 1020.9 |
| 20260503173215 | 65 | 269 | 1.0 | 3.0 | 0.00 | 0.00 | 0.00 | 29 | 1021.3 |
| 20260503172712 | 64 | 200 | 2.0 | 2.0 | 0.00 | 0.00 | 0.00 | 29 | 1021.4 |
| 20260503172209 | 64 | 8 | 0.0 | 1.0 | 0.00 | 0.00 | 0.00 | 30 | 1021.4 |
| 20260503171705 | 65 | 231 | 4.0 | 5.0 | 0.00 | 0.00 | 0.00 | 29 | 1021.5 |
| 20260503171203 | 64 | 206 | 1.0 | 1.0 | 0.00 | 0.00 | 0.00 | 31 | 1021.7 |
| 20260503170700 | 64 | 72 | 1.0 | 2.0 | 0.00 | 0.00 | 0.00 | 31 | 1021.7 |
| 20260503170157 | 64 | 118 | 1.0 | 1.0 | 0.00 | 0.00 | 0.00 | 30 | 1021.7 |
| 20260503160118 | 58 | 169 | 0.0 | 0.0 | 0.00 | 0.00 | 0.00 | 31 | 1022.1 |
| 20260503150548 | 52 | 90 | 0.0 | 0.0 | 0.00 | 0.00 | 0.00 | 46 | 1022.9 |
| 20260503130938 | 34 | 79 | 0.0 | 0.0 | 0.00 | 0.00 | 0.00 | 82 | 1023.7 |
| 20260503130436 | 33 | 142 | 0.0 | 0.0 | 0.00 | 0.00 | 0.00 | 84 | 1023.7 |
| 20260503110326 | 31 | 180 | 0.0 | 0.0 | 0.00 | 0.00 | 0.00 | 86 | 1023.5 |
| 20260503100252 | 32 | 153 | 0.0 | 0.0 | 0.00 | 0.00 | 0.00 | 88 | 1023.2 |
| 20260503090212 | 33 | 144 | 0.0 | 0.0 | 0.00 | 0.00 | 0.00 | 87 | 1023.0 |
| 20260503081139 | 35 | 202 | 0.0 | 0.0 | 0.00 | 0.00 | 0.00 | 80 | 1023.0 |
| 20260503080635 | 34 | 133 | 0.0 | 0.0 | 0.00 | 0.00 | 0.00 | 84 | 1023.0 |
| 20260503080132 | 34 | 170 | 0.0 | 0.0 | 0.00 | 0.00 | 0.00 | 83 | 1023.0 |
| 20260503072609 | 35 | 178 | 0.0 | 0.0 | 0.00 | 0.00 | 0.00 | 80 | 1023.4 |
| 20260503072106 | 35 | 184 | 0.0 | 0.0 | 0.00 | 0.00 | 0.00 | 81 | 1023.4 |
| 20260503071603 | 36 | 142 | 0.0 | 0.0 | 0.00 | 0.00 | 0.00 | 81 | 1023.1 |
| 20260503071059 | 35 | 139 | 0.0 | 0.0 | 0.00 | 0.00 | 0.00 | 81 | 1023.5 |
| 20260503070556 | 36 | 170 | 0.0 | 0.0 | 0.00 | 0.00 | 0.00 | 77 | 1023.2 |